"Pseudo-MPEC" for P115wcT

Created 2020 Sep 20 16:07:22 UT using Find_Orb

Click here for an explanation of pseudo-MPECs

 
 Astrometry: 
     P115wcT  C2020 09 11++uT)U,rnCqCKo+jID6OGVjAA-AstrometryXmQ=xK\[2.)U%LO1F51
     P115wcT  C2020 09 11ws4A/=B@YfaNsG%j+o\@'jI7Jredacted;uqyanruj'92!LS''iNF51
     P115wcT  C2020 09 11`YNE)0edU4!%cs$JgvWWmDY?Qu2e)rxWq[B\FQJ!VgNZlp0lMA9KF51
     P115wcT  C2020 09 112VP3h;:mM1OIGOqPV_Yj+OTwv6(vH^5'uQAiY-r(T!)Q9?0^J_8!F51
     P115wcT ^C2020 09 14.58693503 50 04.126-35 43 59.66   ~9EKM 20.67GVNEOCP568
     P115wcT ^C2020 09 14.58801203 50 04.178-35 44 00.56   ~9EKM 20.63GVNEOCP568
     P115wcT ^C2020 09 14.58895903 50 04.221-35 44 01.32   ~9EKM 20.69GVNEOCP568
     P115wcT KC2020 09 204kxem6E)=A49dG\P.]34h-Sd1l#2clickbk#:0qQVTHwB;aj;w@J474
     P115wcT KC2020 09 204-8V3FcRWVUDr!3eLAherefrI(3mCd3Gxt`.-`r_q(n;Iqg4C+/$474
     P115wcT KC2020 09 20r[MTn@w2-yd[9rhyj(JrP@My7:gZFP^r1eL%_#kFU';NJnrR?k\_474
     P115wcT KC2020 09 20r6v2#02To*?4forVENZjtexplanation6FVRtFl2e7nJc*vb1.pZ474

Station data:
(474) Mount John Observatory, Lake Tekapo  (S43.987388 E170.464960)  New
   Zealand.  Observers A. C. Gilmore, P. M. Kilmartin. Measurer P. M.
   Kilmartin. 1.0-m f/7.7 reflector + CCD.
(568) Mauna Kea  (N19.826116 W155.472200)  US/Hawaii.
(F51) Pan-STARRS 1, Haleakala  (N20.707235 W156.255910)  US/Hawaii.
   Observers N. Primak, A. Schultz, S. Watters, J. Thiel, T. Goggia. Measurer
   PS1 Science Consortium. 1.8-m Ritchey-Chrétien + CCD.

Orbital elements:  P115wcT
   Perihelion 2020 Aug 12.678367 +/- 0.494 TT = 16:16:50 (JD 2459074.178367)
Epoch 2020 Sep 20.0 TT = JDT 2459112.5   Earth MOID: 0.8718   AutoNEOCP
M   9.20884659 +/- 0.06             (J2000 ecliptic)
n   0.24030412 +/- 0.00171          Peri.  245.58663 +/- 0.33
a   2.56229165 +/- 0.0122           Node   110.67688 +/- 0.12
e   0.3253183 +/- 0.00283           Incl.   30.89444 +/- 0.036
P   4.10                   H 18.5   G  0.15   U  8.5  
q 1.72873126 +/- 0.00133    Q 3.39585204 +/- 0.0231
From 11 observations 2020 Sept. 11-20; mean residual 0".09
Residuals in arcseconds: 
200911 F51  .03-  .06-    200914 568  .02-  .03+    200920 474  .10+  .15-    
200911 F51  .08-  .01+    200914 568  .01+  .01-    200920 474  .04-  .25+    
200911 F51  .09+  .08+    200914 568  .01+  .02-    200920 474  .07+  .04+    
200911 F51  .02+  .03-    200920 474  .13-  .14-    

Ephemerides (geocentric):
Date (UTC) HH   RA              Dec         delta   r     elong  mag " sig PA
---- -- -- --  -------------   -----------  ------ ------ -----  --- ---- ---
2020 09 20 16  03 54 11.861   -37 01 08.09  1.0888 1.7529 113.7 21.2 .067  59
2020 09 20 17  03 54 13.177   -37 01 38.53  1.0887 1.7529 113.7 21.2 .073  59
2020 09 20 18  03 54 14.487   -37 02 08.95  1.0886 1.7530 113.7 21.2 .079  59
2020 09 20 19  03 54 15.792   -37 02 39.35  1.0886 1.7530 113.7 21.2 .085  59
2020 09 20 20  03 54 17.092   -37 03 09.74  1.0885 1.7531 113.7 21.2 .092  59
2020 09 20 21  03 54 18.386   -37 03 40.10  1.0885 1.7531 113.8 21.2 .098  59
2020 09 20 22  03 54 19.675   -37 04 10.44  1.0884 1.7532 113.8 21.2 .105  59
2020 09 20 23  03 54 20.959   -37 04 40.76  1.0883 1.7532 113.8 21.2 .111  59
2020 09 21 00  03 54 22.238   -37 05 11.05  1.0883 1.7533 113.8 21.2 .118  59
2020 09 21 01  03 54 23.511   -37 05 41.33  1.0882 1.7533 113.8 21.2 .125  59
2020 09 21 02  03 54 24.779   -37 06 11.59  1.0882 1.7534 113.8 21.2 .131  59
2020 09 21 03  03 54 26.042   -37 06 41.82  1.0881 1.7534 113.8 21.2 .138  59
2020 09 21 04  03 54 27.299   -37 07 12.04  1.0881 1.7535 113.8 21.2 .145  59
2020 09 21 05  03 54 28.552   -37 07 42.23  1.0880 1.7535 113.8 21.2 .152  59
2020 09 21 06  03 54 29.798   -37 08 12.41  1.0879 1.7536 113.9 21.2 .159  59
2020 09 21 07  03 54 31.040   -37 08 42.56  1.0879 1.7536 113.9 21.2 .166  59
2020 09 21 08  03 54 32.276   -37 09 12.69  1.0878 1.7537 113.9 21.2 .173  59
2020 09 21 09  03 54 33.507   -37 09 42.80  1.0878 1.7537 113.9 21.2 .181  59
2020 09 21 10  03 54 34.733   -37 10 12.89  1.0877 1.7538 113.9 21.2 .188  59
2020 09 21 11  03 54 35.953   -37 10 42.95  1.0877 1.7538 113.9 21.2 .195  59
2020 09 21 12  03 54 37.169   -37 11 13.00  1.0876 1.7539 113.9 21.2 .203  59
2020 09 21 13  03 54 38.378   -37 11 43.02  1.0876 1.7539 113.9 21.2 .210  59
2020 09 21 14  03 54 39.583   -37 12 13.03  1.0875 1.7540 113.9 21.2 .218  59
2020 09 21 15  03 54 40.782   -37 12 43.01  1.0874 1.7540 114.0 21.2 .225  59
2020 09 21 16  03 54 41.976   -37 13 12.97  1.0874 1.7541 114.0 21.2 .233  59
2020 09 21 17  03 54 43.165   -37 13 42.90  1.0873 1.7542 114.0 21.2 .241  59
2020 09 21 18  03 54 44.348   -37 14 12.82  1.0873 1.7542 114.0 21.2 .248  59
2020 09 21 19  03 54 45.526   -37 14 42.72  1.0872 1.7543 114.0 21.2 .256  59
2020 09 21 20  03 54 46.699   -37 15 12.59  1.0872 1.7543 114.0 21.2 .264  59
2020 09 21 21  03 54 47.866   -37 15 42.44  1.0871 1.7544 114.0 21.2 .272  60
2020 09 21 22  03 54 49.028   -37 16 12.27  1.0871 1.7544 114.0 21.2 .280  60
2020 09 21 23  03 54 50.185   -37 16 42.08  1.0870 1.7545 114.0 21.2 .288  60
2020 09 22 00  03 54 51.337   -37 17 11.86  1.0869 1.7545 114.1 21.2 .296  60
2020 09 22 01  03 54 52.483   -37 17 41.62  1.0869 1.7546 114.1 21.2 .305  60
2020 09 22 02  03 54 53.624   -37 18 11.37  1.0868 1.7546 114.1 21.2 .313  60
2020 09 22 03  03 54 54.759   -37 18 41.08  1.0868 1.7547 114.1 21.2 .321  60
2020 09 22 04  03 54 55.890   -37 19 10.78  1.0867 1.7547 114.1 21.2 .330  60
2020 09 22 05  03 54 57.015   -37 19 40.46  1.0867 1.7548 114.1 21.2 .338  60
2020 09 22 06  03 54 58.134   -37 20 10.11  1.0866 1.7548 114.1 21.2 .347  60
2020 09 22 07  03 54 59.249   -37 20 39.74  1.0866 1.7549 114.1 21.2 .355  60
2020 09 22 08  03 55 00.358   -37 21 09.35  1.0865 1.7549 114.1 21.2 .364  60
2020 09 22 09  03 55 01.462   -37 21 38.93  1.0865 1.7550 114.2 21.2 .373  60
2020 09 22 10  03 55 02.560   -37 22 08.49  1.0864 1.7550 114.2 21.2 .382  60
2020 09 22 11  03 55 03.653   -37 22 38.04  1.0863 1.7551 114.2 21.2 .391  60
2020 09 22 12  03 55 04.741   -37 23 07.55  1.0863 1.7552 114.2 21.2 .400  60
2020 09 22 13  03 55 05.823   -37 23 37.05  1.0862 1.7552 114.2 21.2 .409  60
2020 09 22 14  03 55 06.900   -37 24 06.52  1.0862 1.7553 114.2 21.2 .418  60
2020 09 22 15  03 55 07.972   -37 24 35.97  1.0861 1.7553 114.2 21.2 .427  60